Weather History for Winder, GA

Change the Weather History Date:

Friday, September 13, 2013

  Actual Average Record
Temperature  
Mean Temperature -29 °F -  
Max Temperature -29 °F 82 °F 95 °F (1962)
Min Temperature -34 °F 61 °F -34 °F (2013)
Degree Days  
Heating Degree Days 94    
Moisture  
Dew Point -35 °F    
Average Humidity 100    
Maximum Humidity 100    
Minimum Humidity 100    
Precipitation  
Precipitation 0.00 in - - ()
Sea Level Pressure  
Sea Level Pressure 29.92 in    
Wind  
Wind Speed 8 mph (NW)    
Max Wind Speed 17 mph    
Max Gust Speed 24 mph    
Visibility 10 miles    
Events      
Averages and records for this station are not official NWS values.
T = Trace of Precipitation, MM = Missing Value Source: NWS Daily Summary

Daily Weather History Graph

Daily Weather History Graph

Search for Another Location

Airport:

Trip Planner

Search our weather history database for the weather conditions in past years. The results will help you decide how hot, cold, wet, or windy it might be!

Date:

Astronomy

Sep. 13, 2013 Rise Set
Actual Time 7:16 AM EDT 7:43 PM EDT
Civil Twilight 6:51 AM EDT 8:08 PM EDT
Nautical Twilight 6:22 AM EDT 8:38 PM EDT
Astronomical Twilight 5:52 AM EDT 9:08 PM EDT
Moon 3:21 PM EDT (9/13) 12:57 AM EDT (9/13)
Length of Visible Light 13h 17m
Length of Day
12h 26m
First Quarter, 61% of the Moon is Illuminated
Sep 13
First Quarter
Sep 19
Full
Sep 26
Last Quarter
Oct 4
New
Oct 11
First Quarter

Hourly Weather History & Observations

Time (EDT) Temp. Windchill Dew Point Humidity Pressure Visibility Wind Dir Wind Speed Gust Speed Precip Events Conditions
12:15 AM - - - N/A% 29.97 in 10.0 mi WNW 4.6 mph - N/A   Scattered Clouds
12:35 AM - - - N/A% 29.97 in 10.0 mi WNW 6.9 mph - N/A   Mostly Cloudy
12:55 AM - - - N/A% 29.96 in 10.0 mi West 5.8 mph - N/A   Scattered Clouds
1:15 AM - - - N/A% 29.95 in 10.0 mi WNW 6.9 mph - N/A   Clear
1:35 AM - - - N/A% 29.95 in 10.0 mi WNW 8.1 mph - N/A   Clear
1:55 AM - - - N/A% 29.94 in 10.0 mi WNW 9.2 mph - N/A   Clear
2:15 AM -29.2 °F -49.7 °F - N/A% 29.94 in 10.0 mi WNW 8.1 mph - N/A   Clear
2:35 AM - - - N/A% 29.93 in 10.0 mi WNW 9.2 mph - N/A   Clear
2:55 AM - - - N/A% 29.93 in 10.0 mi WNW 5.8 mph - N/A   Clear
3:15 AM - - - N/A% 29.92 in 10.0 mi West 6.9 mph - N/A   Clear
3:35 AM - - - N/A% 29.92 in 10.0 mi WNW 4.6 mph - N/A   Clear
3:55 AM - - - N/A% 29.91 in 10.0 mi WNW 8.1 mph - N/A   Clear
4:15 AM - - - N/A% 29.91 in 10.0 mi WNW 6.9 mph - N/A   Clear
4:35 AM - - - N/A% 29.91 in 10.0 mi WNW 5.8 mph - N/A   Clear
4:55 AM - - - N/A% 29.91 in 10.0 mi WNW 6.9 mph - N/A   Clear
5:15 AM - - - N/A% 29.91 in 10.0 mi WNW 5.8 mph - N/A   Clear
5:35 AM - - - N/A% 29.91 in 10.0 mi WNW 3.5 mph - N/A   Clear
5:55 AM -34.6 °F -52.6 °F -34.6 °F 100% 29.92 in 10.0 mi WNW 5.8 mph - N/A   Clear
6:15 AM - - - N/A% 29.92 in 10.0 mi West 4.6 mph - N/A   Clear
6:35 AM - - - N/A% 29.93 in 10.0 mi WNW 3.5 mph - N/A   Clear
6:55 AM - - - N/A% 29.93 in 10.0 mi WNW 3.5 mph - N/A   Clear
7:15 AM - - - N/A% 29.93 in 10.0 mi WNW 5.8 mph - N/A   Clear
7:35 AM - - - N/A% 29.94 in 10.0 mi NW 5.8 mph - N/A   Clear
7:55 AM - - - N/A% 29.94 in 10.0 mi NW 5.8 mph - N/A   Clear
8:15 AM - - - N/A% 29.94 in 10.0 mi NW 6.9 mph - N/A   Clear
8:35 AM - - - N/A% 29.93 in 10.0 mi NW 5.8 mph - N/A   Clear
8:55 AM - - - N/A% 29.93 in 10.0 mi NW 6.9 mph - N/A   Clear
9:15 AM - - - N/A% 29.93 in 10.0 mi NW 9.2 mph - N/A   Clear
9:35 AM - - - N/A% 29.94 in 10.0 mi NNW 11.5 mph - N/A   Clear
9:55 AM - - - N/A% 29.94 in 10.0 mi NNW 9.2 mph - N/A   Clear
10:15 AM - - - N/A% 29.94 in 10.0 mi NNW 9.2 mph - N/A   Clear
10:35 AM - - - N/A% 29.94 in 10.0 mi NNW 9.2 mph - N/A   Clear
10:55 AM - - - N/A% 29.95 in 10.0 mi NW 6.9 mph - N/A   Clear
11:15 AM - - - N/A% 29.95 in 10.0 mi NNW 10.4 mph - N/A   Clear
11:35 AM - - - N/A% 29.95 in 10.0 mi NNW 10.4 mph - N/A   Clear
11:55 AM - - - N/A% 29.95 in 10.0 mi NNW 11.5 mph - N/A   Clear
12:15 PM - - - N/A% 29.94 in 10.0 mi NW 5.8 mph - N/A   Clear
12:35 PM - - - N/A% 29.94 in 10.0 mi NNW 8.1 mph - N/A   Clear
12:55 PM - - - N/A% 29.93 in 10.0 mi NW 10.4 mph - N/A   Clear
1:15 PM - - - N/A% 29.92 in 10.0 mi North 10.4 mph - N/A   Clear
1:35 PM - - - N/A% 29.92 in 10.0 mi North 12.7 mph - N/A   Clear
1:55 PM - - - N/A% 29.91 in 10.0 mi NNW 9.2 mph - N/A   Clear
2:15 PM - - - N/A% 29.91 in 10.0 mi NNW 6.9 mph 18.4 mph N/A   Clear
2:35 PM - - - N/A% 29.90 in 10.0 mi NW 11.5 mph 17.3 mph N/A   Clear
2:55 PM - - - N/A% 29.89 in 10.0 mi NW 9.2 mph - N/A   Scattered Clouds
3:15 PM - - - N/A% 29.88 in 10.0 mi NNW 13.8 mph 17.3 mph N/A   Clear
3:35 PM - - - N/A% 29.88 in 10.0 mi NNW 12.7 mph 17.3 mph N/A   Clear
3:55 PM - - - N/A% 29.87 in 10.0 mi North 13.8 mph - N/A   Clear
4:15 PM - - - N/A% 29.86 in 10.0 mi NW 11.5 mph 18.4 mph N/A   Scattered Clouds
4:35 PM - - - N/A% 29.87 in 10.0 mi WNW 12.7 mph - N/A   Scattered Clouds
4:55 PM - - - N/A% 29.87 in 10.0 mi WNW 13.8 mph 19.6 mph N/A   Clear
5:15 PM - - - N/A% 29.87 in 10.0 mi WNW 12.7 mph 17.3 mph N/A   Clear
5:35 PM - - - N/A% 29.87 in 10.0 mi NW 17.3 mph 24.2 mph N/A   Clear
5:55 PM - - - N/A% 29.88 in 10.0 mi NW 11.5 mph - N/A   Clear
6:15 PM - - - N/A% 29.88 in 10.0 mi NW 12.7 mph - N/A   Clear
6:35 PM - - - N/A% 29.88 in 10.0 mi NNW 10.4 mph - N/A   Clear
6:55 PM - - - N/A% 29.88 in 10.0 mi NW 8.1 mph - N/A   Clear
7:15 PM - - - N/A% 29.89 in 10.0 mi NW 8.1 mph - N/A   Clear
7:35 PM - - - N/A% 29.89 in 10.0 mi NNW 8.1 mph - N/A   Clear
7:55 PM - - - N/A% 29.90 in 10.0 mi NNW 5.8 mph - N/A   Clear
8:15 PM - - - N/A% 29.91 in 10.0 mi North 8.1 mph - N/A   Clear
8:35 PM - - - N/A% 29.91 in 10.0 mi NNW 6.9 mph - N/A   Clear
8:55 PM - - - N/A% 29.91 in 10.0 mi NNW 8.1 mph - N/A   Clear
9:15 PM - - - N/A% 29.92 in 10.0 mi NNW 9.2 mph - N/A   Clear
9:35 PM - - - N/A% 29.93 in 10.0 mi NNW 6.9 mph - N/A   Clear
9:55 PM - - - N/A% 29.93 in 10.0 mi NNW 6.9 mph - N/A   Clear
10:15 PM - - - N/A% 29.94 in 10.0 mi NNW 6.9 mph - N/A   Clear
10:35 PM - - - N/A% 29.94 in 10.0 mi NNW 6.9 mph - N/A   Clear
10:55 PM - - - N/A% 29.95 in 10.0 mi NNW 6.9 mph - N/A   Clear
11:15 PM - - - N/A% 29.95 in 10.0 mi NNW 6.9 mph - N/A   Clear
11:35 PM - - - N/A% 29.95 in 10.0 mi NNW 5.8 mph - N/A   Clear
11:55 PM - - - N/A% 29.95 in 10.0 mi NNW 5.8 mph - N/A   Clear